Simultaneous Nadir Overpasses (SNOs) Predictions

Prediction of SNOs between AURA and NPP Satellite Orbit:

Table of predicted SNOs for the next 14.0 days since TLE Epoch: 9/19/2015
Index Date (AURA) Time (AURA) Lat,Lon (AURA) SZA (AURA ) Date (NPP) Time (NPP) Lat,Lon (NPP) SZA (NPP ) Distance(km) Time Diff (sec)
1 09/22/2015 01:13:31 -78.68,-126.62 87.29 09/22/2015 01:12:48 -78.69,-126.54 87.27 1.80 43
2 09/22/2015 02:02:48 79.04, 43.08 92.26 09/22/2015 02:03:23 79.04, 43.07 92.23 0.19 35
3 09/24/2015 17:29:55 -78.78, -10.18 86.44 09/24/2015 17:29:36 -78.78, -10.15 86.43 0.78 19
4 09/24/2015 18:19:13 79.10, 159.30 93.16 09/24/2015 18:20:12 79.09, 159.24 93.13 1.17 59
5 09/27/2015 08:57:01 78.52, -63.33 94.87 09/27/2015 08:55:49 78.52, -63.27 94.91 1.39 72
6 09/27/2015 09:46:18 -78.95, 106.67 85.68 09/27/2015 09:46:23 -78.95, 106.73 85.69 1.40 5
7 09/30/2015 01:13:27 78.55, 52.72 95.81 09/30/2015 01:12:40 78.54, 52.60 95.87 2.88 47
8 09/30/2015 02:02:45 -78.94,-137.49 84.68 09/30/2015 02:03:15 -78.93,-137.61 84.68 2.61 30
9 10/02/2015 17:29:48 78.78, 169.84 96.50 10/02/2015 17:29:25 78.78, 169.87 96.51 0.74 23




NCC Satellite Simultaneous Nadir Overpasses (SNOs) Prediction Service
